Weather History for Amsterdam, Netherlands

Change the Weather History Date:

Monday, February 4, 2013

  Actual Average Record
Temperature  
Mean Temperature 46 °F -  
Max Temperature 48 °F 44 °F 60 °F (2004)
Min Temperature 43 °F 34 °F 0 °F (2012)
Degree Days  
Heating Degree Days 20    
Moisture  
Dew Point 40 °F    
Average Humidity 80    
Maximum Humidity 100    
Minimum Humidity 56    
Precipitation  
Precipitation 0.02 in - - ()
Sea Level Pressure  
Sea Level Pressure 29.75 in    
Wind  
Wind Speed 18 mph ()    
Max Wind Speed 28 mph    
Max Gust Speed 36 mph    
Visibility 6.1 miles    
Events Rain    
Averages and records for this station are not official NWS values.
T = Trace of Precipitation, MM = Missing Value Source: Averaged Metar Reports

Daily Weather History Graph

Daily Weather History Graph

Search for Another Location

Airport:

Trip Planner

Search our weather history database for the weather conditions in past years. The results will help you decide how hot, cold, wet, or windy it might be!

Date:

Astronomy

Feb. 04, 2013 Rise Set
Actual Time 8:16 AM CET 5:33 PM CET
Civil Twilight 7:40 AM CET 6:10 PM CET
Nautical Twilight 6:59 AM CET 6:50 PM CET
Astronomical Twilight 6:20 AM CET 7:30 PM CET
Moon 2:43 AM CET (2/4) 11:34 AM CET (2/4)
Length of Visible Light 10h 29m
Length of Day
9h 16m
Last Quarter, 40% of the Moon is Illuminated
Feb 4
Last Quarter
Feb 10
New
Feb 17
First Quarter
Feb 25
Full
Mar 4
Last Quarter

Hourly Weather History & Observations

Time (CET) Temp. Windchill Dew Point Humidity Pressure Visibility Wind Dir Wind Speed Gust Speed Precip Events Conditions
12:25 AM 44.6 °F 36.9 °F 42.8 °F 93% 29.77 in 6.2 mi WSW 18.4 mph - N/A   Partly Cloudy
12:55 AM 44.6 °F 37.4 °F 42.8 °F 93% 29.77 in 6.2 mi WSW 16.1 mph - N/A   Partly Cloudy
1:00 AM 45 °F - 43 °F 90% 29.80 in 9 mi WSW 15.7 mph - -   Partly Cloudy
1:25 AM 44.6 °F 37.4 °F 42.8 °F 93% 29.77 in 6.2 mi WSW 16.1 mph - N/A   Scattered Clouds
1:55 AM 46.4 °F 39.5 °F 42.8 °F 87% 29.77 in 6.2 mi WSW 17.3 mph - N/A Rain Light Rain
2:25 AM 44.6 °F 37.2 °F 44.6 °F 100% 29.77 in 5.0 mi WSW 17.3 mph - N/A Rain Light Rain
2:55 AM 44.6 °F 37.4 °F 44.6 °F 100% 29.74 in 5.0 mi WSW 16.1 mph - N/A Rain Light Rain
3:25 AM 46.4 °F 39.8 °F 44.6 °F 93% 29.74 in 4.3 mi WSW 16.1 mph - N/A Rain Light Rain
3:55 AM 46.4 °F 39.8 °F 44.6 °F 93% 29.74 in 5.6 mi WSW 16.1 mph - N/A   Mostly Cloudy
4:00 AM 46 °F - 44 °F 89% 29.74 in 7 mi WSW 17.9 mph - - Rain Light Drizzle
4:25 AM 46.4 °F 39.0 °F 44.6 °F 93% 29.71 in 1.7 mi West 19.6 mph - N/A   Drizzle
4:55 AM 44.6 °F 38.1 °F 44.6 °F 100% 29.71 in 2.5 mi WSW 13.8 mph - N/A   Light Drizzle
5:25 AM 44.6 °F 37.4 °F 44.6 °F 100% 29.71 in 6.2 mi WSW 16.1 mph - N/A   Mostly Cloudy
5:55 AM 46.4 °F 39.2 °F 44.6 °F 93% 29.71 in 6.2 mi WSW 18.4 mph - N/A   Mostly Cloudy
6:25 AM 46.4 °F 39.2 °F 44.6 °F 93% 29.68 in 6.2 mi WSW 18.4 mph - N/A   Mostly Cloudy
6:55 AM 46.4 °F 38.5 °F 44.6 °F 93% 29.71 in 5.6 mi West 21.9 mph - N/A   Light Drizzle
7:00 AM 46 °F - 44 °F 90% 29.71 in 3 mi West 22.4 mph - - Rain Drizzle
7:25 AM 46.4 °F 38.1 °F 44.6 °F 93% 29.71 in 1.9 mi West 24.2 mph 35.7 mph N/A Rain Rain
7:55 AM 46.4 °F 38.1 °F 44.6 °F 93% 29.71 in 6.2 mi West 24.2 mph - N/A Rain Light Rain
8:25 AM 46.4 °F 38.3 °F 44.6 °F 93% 29.71 in 6.2 mi West 23.0 mph - N/A   Scattered Clouds
8:55 AM 46.4 °F 38.5 °F 44.6 °F 93% 29.71 in 6.2 mi West 21.9 mph - N/A   Scattered Clouds
9:25 AM 48.2 °F - 44.6 °F 87% 29.71 in 6.2 mi West 24.2 mph - N/A   Partly Cloudy
9:55 AM 48.2 °F - 44.6 °F 87% 29.71 in 6.2 mi West 27.6 mph - N/A   Partly Cloudy
10:00 AM 47 °F - 44 °F 86% 29.74 in 12 mi West 24.6 mph - -   Partly Cloudy
10:25 AM 46.4 °F 38.1 °F 44.6 °F 93% 29.74 in 6.2 mi West 24.2 mph - N/A Rain Light Rain
11:55 AM 48.2 °F - 39.2 °F 71% 29.77 in - West 26.5 mph - N/A   Clear
12:25 PM 48.2 °F - 39.2 °F 71% 29.77 in - West 27.6 mph - N/A   Clear
12:55 PM 48.2 °F - 37.4 °F 66% 29.77 in - WNW 25.3 mph - N/A   Clear
1:00 PM 49 °F - 38 °F 57% 29.78 in 8 mi WNW 22.4 mph - -   Partly Cloudy
1:25 PM 48.2 °F - 39.2 °F 71% 29.77 in - West 24.2 mph - N/A   Clear
1:55 PM 48.2 °F - 37.4 °F 66% 29.77 in - West 23.0 mph - N/A   Clear
2:25 PM 48.2 °F - 37.4 °F 66% 29.80 in - West 25.3 mph - N/A   Clear
2:55 PM 48.2 °F - 37.4 °F 66% 29.77 in - West 24.2 mph 35.7 mph N/A   Clear
3:25 PM 48.2 °F - 37.4 °F 66% 29.77 in - West 24.2 mph - N/A   Clear
3:55 PM 46.4 °F 38.3 °F 35.6 °F 66% 29.77 in 6.2 mi West 23.0 mph - N/A   Partly Cloudy
4:00 PM 47 °F - 36 °F 56% 29.79 in 8 mi West 20.1 mph - -  
4:25 PM 46.4 °F 38.7 °F 37.4 °F 71% 29.77 in 6.2 mi WSW 20.7 mph - N/A   Partly Cloudy
4:55 PM 46.4 °F 38.7 °F 35.6 °F 66% 29.77 in 6.2 mi WSW 20.7 mph - N/A   Scattered Clouds
5:25 PM 44.6 °F 36.6 °F 37.4 °F 76% 29.77 in 6.2 mi WSW 19.6 mph - N/A   Partly Cloudy
5:55 PM 44.6 °F 36.9 °F 37.4 °F 76% 29.77 in 6.2 mi WSW 18.4 mph - N/A   Partly Cloudy
6:25 PM 46.4 °F 39.2 °F 37.4 °F 71% 29.77 in 6.2 mi WSW 18.4 mph - N/A   Partly Cloudy
6:55 PM 44.6 °F 36.1 °F 37.4 °F 76% 29.77 in 6.2 mi WSW 21.9 mph - N/A   Scattered Clouds
7:00 PM 45 °F - 37 °F 66% 29.79 in 9 mi WSW 22.4 mph - - Rain Light Drizzle
7:25 PM 44.6 °F 36.6 °F 37.4 °F 76% 29.77 in 6.2 mi WSW 19.6 mph - N/A   Partly Cloudy
7:55 PM 44.6 °F 36.4 °F 37.4 °F 76% 29.77 in 6.2 mi WSW 20.7 mph - N/A   Scattered Clouds
8:55 PM 44.6 °F 36.4 °F 35.6 °F 71% 29.74 in - WSW 20.7 mph - N/A   Clear
9:25 PM 44.6 °F 36.4 °F 35.6 °F 71% 29.74 in - WSW 20.7 mph - N/A   Clear
9:55 PM 44.6 °F 36.4 °F 37.4 °F 76% 29.74 in - WSW 20.7 mph - N/A   Clear
10:00 PM 45 °F - 36 °F 60% 29.75 in 9 mi WSW 20.1 mph - -   Overcast
10:25 PM 44.6 °F 35.9 °F 35.6 °F 71% 29.74 in - WSW 23.0 mph - N/A   Clear
10:55 PM 44.6 °F 36.1 °F 33.8 °F 66% 29.71 in 6.2 mi WSW 21.9 mph - N/A   Partly Cloudy
11:25 PM 44.6 °F 36.4 °F 35.6 °F 71% 29.71 in 6.2 mi WSW 20.7 mph 32.2 mph N/A   Partly Cloudy
11:55 PM 44.6 °F 36.6 °F 35.6 °F 71% 29.68 in 6.2 mi WSW 19.6 mph - N/A   Mostly Cloudy